Weather Service Report


748 
ASUS44 KJAN 252310
RWRMS 

MISSISSIPPI HOURLY WEATHER ROUNDUP
NATIONAL WEATHER SERVICE JACKSON MS
600 PM CDT THU MAY 25 2017

NOTE: "FAIR: INDICATES FEW OR NO CLOUDS BELOW 12,000 FEET WITH NO
SIGNIFICANT WEATHER AND/OR OBSTRUCTIONS TO VISIBILITY.

MSZ001>002-007>008-010>013-018>021-025>028-034>036-260000-
NORTHWEST MISSISSIPPI
  
CITY           SKY/WX    TMP DP  RH WIND       PRES   REMARKS
BATESVILLE     FAIR      76  53  45 S8        29.81S                  
CLARKSDALE       N/A     77  59  53 MISG      29.80S                  
CLEVELAND      FAIR      77  57  49 SW8       29.79F                  
GREENWOOD      SUNNY     77  58  51 SW7       29.81S                  
GREENVILLE     SUNNY     78  56  46 S10       29.79F                  
OLIVE BRANCH   SUNNY    N/A N/A N/A SW12G17   29.78F                  
OXFORD         FAIR      73  52  46 SW6       29.83S                  
TUNICA         CLEAR     73  54  49 SW10G16   29.80S                  
WINONA         FAIR      76  55  48 SW3       29.82S                  
$$

MSZ003>006-009-014>017-022>024-029>033-037>039-260000-
NORTHEAST MISSISSIPPI
  
CITY           SKY/WX    TMP DP  RH WIND       PRES   REMARKS
COLUMBUS AFB   SUNNY     76  58  52 W10       29.82S                  
CORINTH        FAIR      75  52  43 SW8       29.80S                  
GOLDN TRIANGLE SUNNY     75  50  41 W9        29.80R                  
STARKVILLE     FAIR      77  52  41 SW3       29.84S                  
TUPELO         SUNNY     76  49  38 SW7       29.81S                  
$$

MSZ040-058-260000-
CENTRAL MISSISSIPPI
  
CITY           SKY/WX    TMP DP  RH WIND       PRES   REMARKS
JACKSON INTL   SUNNY     79  56  45 S8        29.83S                  
JACKSON HAWKNS SUNNY     80  55  42 SW8       29.83S                  
MADISON        FAIR      77  54  44 W7        29.83R                  
MERIDIAN KEY   SUNNY     80  51  36 VRB3      29.84S                  
MERIDIAN NAS   SUNNY     79  49  34 W7        29.85S                  
VICKSBURG VKS  CLEAR     81  57  44 SW7       29.79F                  
$$

MSZ059>079-260000-
SOUTH MISSISSIPPI
  
CITY           SKY/WX    TMP DP  RH WIND       PRES   REMARKS
COLUMBIA       FAIR      81  55  41 S8        29.87S                  
HATTIESBURG    SUNNY     81  53  37 VRB5      29.85S                  
MCCOMB         SUNNY     81  52  36 VRB7      29.84S                  
NATCHEZ        MOSUNNY   82  64  54 S6        29.82F                  
PINE BELT      NOT AVBL                                               
$$

MSZ080>082-260000-
COASTAL MISSISSIPPI
  
CITY           SKY/WX    TMP DP  RH WIND       PRES   REMARKS
BILOXI         SUNNY     80  59  49 SW13      29.85S                  
PASCAGOULA     SUNNY     79  56  45 SW5       29.85F                  
GULFPORT       SUNNY     82  55  39 VRB7      29.84S                  
$$

LAZ007>009-015>016-023>026-260000-
NORTHEAST LOUISIANA
  
CITY           SKY/WX    TMP DP  RH WIND       PRES   REMARKS
BASTROP        FAIR      83  60  46 S7        29.78F                  
TALLULAH/VBURG SUNNY     78  58  49 S8        29.81F                  
VIDALIA        FAIR      80  65  59 SE8       29.80F                  
$$
  

Return to Home page


Western Regional Climate Center, wrcc@dri.edu